New York, NY (10027)

10:19 PM EDT on July 30, 2016 (GMT -0400)
Upper West Side | | Change Station

Elev 154 ft 40.79 °N, 73.97 °W | Updated 19 minutes ago

Rain
Rain
73.9 °F
Feels Like 71 °F
N
5.0
Wind Variable Wind from South
Gusts 5.0 mph

Today
High -- | Low -- °F
--% Chance of Precip.
Yesterday
High -- | Low -- °F
Precip. -- in
Pressure 30.07 in
Visibility 2.5 miles
Clouds Few 1100 ft
Scattered Clouds 2100 ft
Mostly Cloudy 5000 ft
Heat Index 71 °F
Dew Point 72 °F
Humidity 93%
Rainfall 0.20 in
Snow Depth Not available.
5:50 AM 8:13 PM
Waning Crescent, 9% visible
SPECI KNYC 310207Z AUTO VRB04KT 2 1/2SM BR FEW011 SCT021 BKN050 23/22 A3007 RMK AO2 RAE0153 P0000 T02330222 $
Pressure 30.07 in
Visibility 2.5 miles
Clouds Few 1100 ft
Scattered Clouds 2100 ft
Mostly Cloudy 5000 ft
Heat Index 71 °F
Dew Point 72 °F
Humidity 93%
Rainfall 0.20 in
Snow Depth Not available.
5:50 AM 8:13 PM
Waning Crescent, 9% visible
SPECI KNYC 310207Z AUTO VRB04KT 2 1/2SM BR FEW011 SCT021 BKN050 23/22 A3007 RMK AO2 RAE0153 P0000 T02330222 $

10-Day Weather Forecast

Almanac

Astronomy

Jul. 30, 2016 Rise Set
Actual Time
Civil Twilight
Nautical Twilight
Astronomical Twilight
Moon
Length of Visible Light
Length of Day
Tomorrow will be .
, % of the Moon is Illuminated

Today's Extremes

State Highs State Lows

Community

WunderPhotos

Upload Photos

1,928,706 photos uploaded!

WunderBlog® & News

Nearby

Air Quality

  Air Quality AQ Index Pollutant
Not available.

Snow Depth

Station Depth Elevation

Earthquake Activity

City Distance Mag. Time & Date
Minimum magnitude displayed is 2.5.

Coastal Water Temperatures

Place Temperature

Stations

Nearby Weather Stations

Station Location Temp. Windchill Dew Point Humidity Wind Precip. Elev Updated Type
                   

Watches & Warnings

There are currently no watches in effect.